Regional Weather Roundup
Issued by NWS Portland, ME

Home | Current Version | Previous Version | Text Only | Print | Product List | Glossary On
Versions: 1 2 3 4 5 6 7 8 9 10 11 12 13 14 15 16 17 18 19 20 21 22 23 24 25 26 27 28 29 30 31 32 33 34 35 36 37 38 39 40 41 42 43 44 45 46 47 48 49 50
000
ASUS41 KGYX 201310
RWRGYX
WEATHER ROUNDUP FOR MAINE AND NEW HAMPSHIRE
NATIONAL WEATHER SERVICE GRAY ME
900 AM EDT MON OCT 20 2014

MEZ002-005-006-010-012-015-018-020-021-024-026-027-029-201400-
MAINE

CITY           SKY/WX    TMP DP  RH WIND       PRES   REMARKS
PORTLAND       MOSUNNY   44  28  53 SW5       29.99R
SANFORD        CLOUDY    43  25  49 SW9       30.00R
BAR HARBOR     MOSUNNY   43  30  61 W12G17    29.93R
WISCASSET      MOSUNNY   43  27  53 W6        29.99R
ROCKLAND       PTSUNNY   41  25  52 W12G18    29.95S
FRYEBURG       CLOUDY    41  23  48 NW5       29.96R
LEWISTONAUBURN PTSUNNY   39  21  48 CALM      29.97R
AUGUSTA        PTSUNNY   41  23  48 NW9       29.96R
WATERVILLE     CLOUDY    39  21  48 W7        29.93R
BANGOR         PTSUNNY   41  26  55 W9G18     29.93R
GREENVILLE       N/A     34  25  69 NW10G22   29.84S
MILLINOCKET    CLOUDY    40  26  57 NW12G21   29.88R
HOULTON        CLOUDY    37  27  67 NW9G21    29.82R
PRESQUE ISLE   SUNNY     37  25  60 W13G18    29.80R
FRENCHVILLE    CLOUDY    33  26  75 W15G26    29.77R
CARIBOU        SUNNY     38  25  59 W10G22    29.78R
$$

NHZ002-005-008-009-011-012-014-201400-
NEW HAMPSHIRE

CITY           SKY/WX    TMP DP  RH WIND       PRES   REMARKS
PORTSMOUTH     PTSUNNY   42  27  54 SW12G17   30.01R
ROCHESTER      PTSUNNY   40  25  55 VRB6      30.00R
NASHUA         SUNNY     41  28  60 CALM      30.06R
MANCHESTER     PTSUNNY   40  25  55 SW7       30.02R
CONCORD        MOSUNNY   39  26  59 SW5       30.02R
LACONIA        MOSUNNY   39  25  56 W9        29.98R
PLYMOUTH       CLOUDY    38  30  74 W7        29.99R
BERLIN         CLOUDY    36  25  64 W6        29.96R
WHITEFIELD     PTSUNNY   37  27  67 CALM      29.98S
JAFFREY        MOSUNNY   35  26  69 SW5       30.02R
LEBANON        MOSUNNY   34  26  72 CALM      30.02R
MT WASHINGTON  MOSUNNY   19  -9  27 NW41        N/A  WCI  -2
$$

VTZ005-007-008-201400-
VERMONT

CITY           SKY/WX    TMP DP  RH WIND       PRES   REMARKS
ST JOHNSBURY     N/A     37  28  70 MISG      29.97S
MONTPELIER     MOSUNNY   35  27  72 CALM      30.01R
BURLINGTON     MOSUNNY   38  26  62 S10       30.01R
$$

MAZ007-012-024-CTZ003-RIZ002-NYZ038-NYZ072-201400-
SOUTHERN NEW ENGLAND AND NY

CITY           SKY/WX    TMP DP  RH WIND       PRES   REMARKS
BOSTON         MOSUNNY   42  27  55 SW10      30.07R
WORCESTER      MOSUNNY   37  28  70 W9G17     30.04R
NANTUCKET      SUNNY     47  28  47 W10       30.08R
PROVIDENCE     MOSUNNY   41  29  62 SW6       30.10R
HARTFORD       MOSUNNY   42  30  62 SW8       30.07R
ALBANY         PTSUNNY   39  32  76 SE6       30.05F
NEW YORK CITY  PTSUNNY   48  30  49 SW9       30.12R
$$

ANZ081-ANZ082-ANZ150-NHZ014-MEZ023>029-201400-
COASTAL MARINE OBSERVATIONS

STATION/POSITION TIME  TEMP    WIND        PRES    WAVE
                       AIR SEA DIR/SP/G            HT/PER
                 (UTC) (F)     (DEG/KT/KT) (MB)    (FT/S)
MOUNT DESERT ROC 1300   44                 1013.7
MATINICUS ROCK   1300          300/ 18/ 20 1014.2R
PORTLAND WX BUOY 1250   43 55  280/ 10/ 12 1015.3R   2/11
WELLS            1200   41 50  280/  8/ 11 1014.8R
ISLE OF SHOALS   1300   40     260/ 16/ 18 1016.2R
JEFFREYS LEDGE   1221      56                N/A     4/ 5
CASHES LEDGE BUO 1250   46 55  270/ 12/ 17 1014.7R   4/ 6
$$

.............KEY..............
   WCI - WIND CHILL
   TC  - TEMPERATURE IN CELSIUS
   VSB - VISIBILITY IN MILES
   HX  - HEAT INDEX
   FAIR- INDICATES FEW OR NO CLOUDS BELOW 12,000 FT, WITH NO
         SIGNIFICANT WEATHER AND/OR OBSTRUCTIONS TO VISIBILITY.





USA.gov is the U.S. government's official web portal to all federal, state and local government web resources and services.